Regional Weather Roundup
Issued by NWS

Home | Current Version | Previous Version | Graphics & Text | Print | Product List | Glossary On
Versions: 1 2 3 4 5 6 7 8 9 10 11 12 13 14 15 16 17 18 19 20 21 22 23 24 25 26 27 28 29 30 31 32 33 34 35 36 37 38 39 40 41 42 43 44 45 46 47 48 49 50
000
ASUS43 KLOT 250503
RWRIL

ILLINOIS REGIONAL WEATHER ROUNDUP
NATIONAL WEATHER SERVICE CHICAGO/ROMEOVILLE IL
1200 AM CDT MON JUL 25 2016

NOTE: "FAIR" INDICATES FEW OR NO CLOUDS BELOW 12,000 FEET WITH NO
SIGNIFICANT WEATHER AND/OR OBSTRUCTIONS TO VISIBILITY.

* THESE STATIONS ARE NOT UNDER NWS QUALITY CONTROL. THEY ALSO MAY NOT
  REPORT WEATHER SUCH AS PRECIPITATION OR FOG.

ILZ001-002-007-009-015-016-024-250600-
NORTHWEST ILLINOIS

CITY           SKY/WX    TMP DP  RH WIND       PRES   REMARKS
MOLINE         CLOUDY    79  66  64 N7        29.95R HX  81
STERLING*      CLOUDY    76  70  82 W6        29.95R
SAVANNA*       CLOUDY    75  68  80 NW6       29.94S
$$

ILZ003-004-008-010-011-017-018-250600-
NORTH CENTRAL ILLINOIS

CITY           SKY/WX    TMP DP  RH WIND       PRES   REMARKS
ROCKFORD       CLOUDY    77  68  73 NW3       29.94R
FREEPORT*      CLOUDY    71  67  88 W7        29.96R
ROCHELLE*      CLOUDY    74  72  91 CALM      29.95R
$$

ILZ005-006-012>014-019>023-250600-
NORTHEAST ILLINOIS

CITY           SKY/WX    TMP DP  RH WIND       PRES   REMARKS
CHICAGO-OHARE  CLOUDY    76  68  76 SW8       29.92R
CHICAGO-MIDWAY CLOUDY    76  67  73 S15       29.93R
AURORA         CLOUDY    75  69  81 S8        29.95R
LANSING*       CLOUDY    73  66  77 S12       29.95R
WAUKEGAN       CLOUDY    78  72  81 VRB3      29.91R HX  80
DUPAGE AIRPORT CLOUDY    75  66  73 S9        29.93R
KANKAKEE*      CLOUDY    69  65  86 S15       29.99R
WHEELING       CLOUDY    78  67  68 SW6       29.92R HX  80
MORRIS*        CLOUDY    73  68  86 S8        29.95R
NORTHERLY ISL    N/A     76  66  71 S8          N/A
$$

LMZ740>746-250600-
SOUTHERN LAKE MICHIGAN

STATION/POSITION SKY/WX   TEMP    WIND        PRES    VSBY  WAVE
                          AIR SEA DIR/SP/G                  HT/PER
                          (F)     (DEG/KT/KT) (MB)    (MI)  (FT/S)
SOUTHERN BUOY              76 73  250/ 10/ 12 1010.2          2/ 4
WILMETTE HARBOR            70 64  260/  6/  8   N/A           1/ 3
HARRISON CRIB              78     210/ 16/ 18   N/A
BURNHAM HARBOR             76     170/ 10       N/A
CALUMET HARBOR             76     210/  7/  9 1012.4R
BURNS HARBOR               74     230/  9/ 11 1013.9R
MICHIGAN CITY              77     160/  9/ 13   N/A
MICHIGAN CITY 6N           76 74  210/ 10/ 12   N/A           3/ 4
ST. JOSEPH                 76 74  190/  8/ 10 1011.9R         3/ 4
$$

ILZ025>027-034>036-040-047-049-050-058-095>099-250600-
WEST-CENTRAL ILLINOIS

CITY           SKY/WX    TMP DP  RH WIND       PRES   REMARKS
QUINCY         PTCLDY    77  71  82 NW3       29.97R
GALESBURG*     CLOUDY    76  70  82 CALM      29.96R
MACOMB*        CLOUDY    75  74  96 CALM      29.99R
JACKSONVILLE*  CLOUDY    79  70  73 SE16      30.00R HX  82
PITTSFIELD*    CLOUDY    80  75  86 E3        29.98R HX  84
$$

ILZ028>032-037-038-041>044-048-051>054-059>061-250600-
CENTRAL ILLINOIS

CITY           SKY/WX    TMP DP  RH WIND       PRES   REMARKS
BLOOMINGTON    TSTM      71  68  90 S9        29.99R
DECATUR        TSTM      73  72  96 NE10      30.05R FOG
PEORIA         LGT RAIN  79  76  90 S12       29.95R HX  83
LACON*         LGT RAIN  75  72  88 CALM      29.94R
LINCOLN*       CLOUDY    72  71  99 E13       29.97F THUNDER
SPRINGFIELD    CLOUDY    77  74  90 SE6       29.99R
TAYLORVILLE    NOT AVBL
$$

ILZ033-039-045-046-055>057-062-063-250600-
EAST-CENTRAL ILLINOIS

CITY           SKY/WX    TMP DP  RH WIND       PRES   REMARKS
CHAMPAIGN      RAIN      69  68  96 W5        30.05F FOG
MATTOON        CLOUDY    74  67  78 N13G35    30.05R
$$

ILZ079-100>102-250600-
SOUTHWEST ILLINOIS

CITY           SKY/WX    TMP DP  RH WIND       PRES   REMARKS
ALTON          CLOUDY    83  74  75 NW16G23   29.99R HX  90
BELLEVILLE     CLOUDY    81  81  99 CALM      29.95R HX  92
CAHOKIA*       CLOUDY    85  77  77 S5        29.94R HX  95
SPARTA*        CLEAR     80  76  86 S3        29.98R HX  86
$$

ILZ064>066-069>071-074>076-080>082-084>086-088>090-092>094-250600-
SOUTH-CENTRAL ILLINOIS

CITY           SKY/WX    TMP DP  RH WIND       PRES   REMARKS
CARBONDALE     CLEAR     79  76  90 CALM      29.97R HX  83
EFFINGHAM*     CLOUDY    79  77  94 CALM      30.01R HX  84
MARION         CLEAR     81  77  89 CALM      29.98R HX  88
MT. VERNON     PTCLDY    75  70  83 CALM      29.98R
CENTRALIA*     CLEAR     78  76  95 SE5       29.98R HX  80
SALEM*         CLEAR     81  75  80 CALM      29.98R HX  87
METROPOLIS*    PTCLDY    79  77  94 CALM      29.96R HX  83
$$

ILZ067-068-072-073-078-083-087-091-250600-
SOUTHEAST ILLINOIS

CITY           SKY/WX    TMP DP  RH WIND       PRES   REMARKS
LAWRENCEVILLE  CLEAR     79  77  94 CALM      29.98R HX  83
FLORA*         CLEAR     78  76  94 SE3       29.98R FOG
FAIRFIELD*     CLEAR     78  78  97 CALM      29.98R FOG     HX  82
HARRISBURG*    CLEAR     79  78  96 CALM      29.98R HX  83
ROBINSON*      CLEAR     76  75  97 CALM      30.00R
CARMI*         CLEAR     78  78 100 CALM      29.97R FOG     HX  80
$$

ABBREVIATIONS USED IN REMARKS
   TC - TEMPERATURE IN CELSIUS
  WCI - WIND CHILL INDEX
   HX - HEAT INDEX
  VSB - VISIBILITY
$$





USA.gov is the U.S. government's official web portal to all federal, state and local government web resources and services.